Home   Weather   Lahti   Past weeks

Flag for Finland Past Weather in Lahti, Finland — Yesterday and Last 2 Weeks

Now
41 °F

Sunny.


Feels Like: 38 °F
Forecast: 31 / 40 °F
Wind: 5 mph from Northeast

Location: Utti

Current Time: Apr 28, 2017 at 9:21:13 pm

Latest Report: Apr 28, 2017 at 8:50 pm


Visibility: 10 mi

Pressure: 30.21 "Hg

Humidity: 66%

Dew Point: 30 °F

Location of LahtiLocation

Past Weather in Lahti — Graph

°F

Lahti Temperature Yesterday

Maximum temperature yesterday: 46 °F (at 12:20 pm)
Minimum temperature yesterday: 32 °F (at 3:50 am)
Average temperature yesterday: 38 °F

High & Low Weather Summary for the Past Weeks

 TemperatureHumidityPressure
High48 °F (Apr 28, 2:50 pm)100% (Apr 20, 9:50 pm)30.48 "Hg (Apr 20, 9:50 pm)
Low19 °F (Apr 14, 5:20 am)24% (Apr 19, 4:50 pm)29.15 "Hg (Apr 22, 5:50 am)
Average35 °F72%29.76 "Hg
* Reported Apr 13 8:20 pm — Apr 28 8:20 pm, Lahti, Weather by CustomWeather, © 2017

Note: Actual official high and low records may vary slightly from our data, if they occured in-between our weather recording intervals... More about our weather records

Advertising

Lahti Weather History for the Previous 24 Hours

Scroll right to see more
 ConditionsComfort  
Time TempWeatherWind HumidityBarometerVisibility
8:20 pm
Fri, Apr 28
41 °FSunny.7 mph66%30.21 "Hg10 mi
7:50 pm45 °FSunny.9 mph57%30.21 "Hg10 mi
7:20 pm45 °FSunny.9 mph49%30.21 "Hg10 mi
6:50 pm45 °FPassing clouds.8 mph53%30.18 "HgN/A
6:20 pm46 °FPassing clouds.12 mph53%30.18 "HgN/A
5:50 pm48 °FPartly sunny.9 mph46%30.18 "HgN/A
5:20 pm46 °FOvercast.7 mph53%30.18 "HgN/A
4:50 pm46 °FSunny.1 mph46%30.18 "Hg10 mi
4:20 pm48 °FPassing clouds.7 mph43%30.18 "HgN/A
3:50 pm46 °FPassing clouds.7 mph46%30.18 "HgN/A
3:20 pm48 °FSunny.5 mph40%30.15 "Hg10 mi
2:50 pm48 °FPassing clouds.9 mph40%30.15 "HgN/A
2:20 pm46 °FSunny.3 mph46%30.15 "Hg10 mi
1:50 pm45 °FPassing clouds.7 mph53%30.15 "HgN/A
1:20 pm46 °FSunny.6 mph43%30.15 "Hg10 mi
12:50 pm45 °FPassing clouds.6 mph46%30.15 "HgN/A
12:20 pm45 °FPassing clouds.7 mph46%30.15 "HgN/A
11:50 am45 °FPassing clouds.7 mph46%30.15 "HgN/A
11:20 am43 °FPassing clouds.5 mph53%30.12 "HgN/A
10:50 am43 °FPassing clouds.3 mph57%30.12 "HgN/A
10:20 am41 °FPassing clouds.6 mph66%30.12 "HgN/A
9:50 am39 °FPassing clouds.3 mph70%30.09 "HgN/A
9:20 am39 °FSunny.2 mph70%30.09 "Hg10 mi
8:50 am37 °FSunny.1 mph75%30.07 "Hg10 mi
8:20 am36 °FSunny.3 mph81%30.07 "Hg10 mi
7:50 am34 °FSunny.2 mph87%30.07 "Hg10 mi
7:20 am32 °FSunny.2 mph93%30.07 "Hg10 mi
6:50 am30 °FSunny.1 mph93%30.04 "Hg10 mi
6:20 am30 °FSunny.2 mph93%30.01 "Hg10 mi
5:50 am28 °FFog.3 mph93%30.01 "HgN/A
5:20 am28 °FSunny.3 mph93%30.01 "Hg10 mi
4:50 am30 °FClear.5 mph93%29.98 "Hg10 mi
4:20 am28 °FClear.3 mph93%29.98 "Hg10 mi
3:50 am28 °FClear.3 mph93%29.98 "Hg10 mi
3:20 am28 °FClear.2 mph93%29.98 "Hg10 mi
2:50 am30 °FClear.2 mph93%29.95 "Hg10 mi
2:20 am30 °FClear.No wind93%29.95 "Hg10 mi
1:50 am32 °FClear.1 mph87%29.95 "Hg10 mi
1:20 am32 °FClear.3 mph93%29.92 "Hg10 mi
12:50 am32 °FClear.6 mph93%29.92 "Hg10 mi
12:20 am32 °FClear.7 mph93%29.92 "Hg10 mi
11:50 pm
Thu, Apr 27
34 °FClear.7 mph87%29.89 "Hg10 mi
11:20 pm34 °FClear.7 mph87%29.89 "Hg10 mi
10:50 pm34 °FClear.6 mph87%29.89 "Hg10 mi
10:20 pm36 °FClear.5 mph81%29.86 "Hg10 mi
9:50 pm36 °FClear.5 mph81%29.86 "Hg10 mi
9:20 pm37 °FPassing clouds.7 mph81%29.86 "HgN/A
Weather by CustomWeather, © 2017

See weather overviewHow to use our weather pages